Weather reports worldwide

Advertisment
Aboyne, United Kingdom (3080): temperature & dewpoint: 16.04.2018 15:00:00 - 22.04.2018 15:00:00 (BST)Aboyne, United Kingdom (3080): temperature -20cm & temperature -100cm: 16.04.2018 15:00:00 - 22.04.2018 15:00:00 (BST)Aboyne, United Kingdom (3080): wind speed & gusts: 16.04.2018 15:00:00 - 22.04.2018 15:00:00 (BST)Aboyne, United Kingdom (3080): wind direction: 16.04.2018 15:00:00 - 22.04.2018 15:00:00 (BST)Aboyne, United Kingdom (3080): reduced air pressure: 16.04.2018 15:00:00 - 22.04.2018 15:00:00 (BST)Aboyne, United Kingdom (3080): visibility: 16.04.2018 15:00:00 - 22.04.2018 15:00:00 (BST)Aboyne, United Kingdom (3080): precipitation: 16.04.2018 15:00:00 - 22.04.2018 15:00:00 (BST)
Date & Time tt [°C] td [°C] tt -20cm [°C] tt -100cm [°C] ff [km/h] ff [kn] fx [km/h] fx [kn] dd ppp [hPa] vv [km] rr [mm]
22.04.2018 15:00:00 14,3 6,7 - - 21 11 - - WSW 999,8 40 0,0
22.04.2018 14:00:00 14,5 6,7 - - 22 12 50 27 WSW 1000,0 40 0,0
22.04.2018 13:00:00 12,0 5,9 - - 15 8 50 27 SW 1000,5 40 0,0
22.04.2018 12:00:00 12,3 5,8 - - 8 4 - - W 1000,8 45 0,0
22.04.2018 11:00:00 14,6 3,7 - - 21 11 - - WSW 1001,0 45 0,0
22.04.2018 10:00:00 14,2 4,2 8,0 6,7 15 8 - - SSW 1001,3 40 0,0
22.04.2018 09:00:00 13,3 8,6 - - 9 5 - - S 1001,8 18 0,0
22.04.2018 08:00:00 11,3 10,6 - - 4 2 - - NNW 1002,3 13 0,0
22.04.2018 07:00:00 6,3 6,3 - - 8 4 - - WSW 1002,9 6 0,0
22.04.2018 06:00:00 4,4 4,4 - - 5 3 - - SE 1003,9 4,8 0,0
22.04.2018 05:00:00 4,4 4,4 - - 4 2 - - WSW 1004,7 7 0,0
22.04.2018 04:00:00 4,1 4,1 - - 5 3 - - W 1006,0 7 0,0
22.04.2018 03:00:00 5,0 5,0 - - 5 3 - - WSW 1007,1 11 0,0
22.04.2018 02:00:00 5,2 5,2 - - 8 4 - - W 1008,0 7 0,0
22.04.2018 01:00:00 5,1 4,9 - - 4 2 - - WSW 1009,5 10 0,0
22.04.2018 00:00:00 4,2 4,0 - - 5 3 - - E 1010,5 12 0,0
21.04.2018 23:00:00 4,5 3,4 - - 4 2 - - ENE 1011,2 15 0,0
21.04.2018 22:00:00 7,1 4,4 - - 4 2 - - SSE 1012,0 19 0,0
21.04.2018 21:00:00 8,5 5,0 - - 9 5 - - E 1012,8 24 0,0
21.04.2018 20:00:00 10,1 4,9 - - 9 5 - - E 1013,6 30 0,0
21.04.2018 19:00:00 13,2 6,1 - - 15 8 - - SE 1014,0 40 0,0
21.04.2018 18:00:00 15,1 7,1 - - 18 10 - - SE 1014,0 40 0,0
21.04.2018 17:00:00 16,8 6,7 - - 13 7 - - SSW 1014,5 35 0,0
21.04.2018 16:00:00 16,6 5,4 - - 16 9 - - SSW 1015,5 35 0,0
21.04.2018 15:00:00 15,4 4,8 - - 15 8 - - SW 1016,3 40 0,0
21.04.2018 14:00:00 15,1 4,7 - - 16 9 - - SSW 1017,3 50 0,0
21.04.2018 13:00:00 14,7 6,0 - - 16 9 - - SSW 1018,1 45 0,0
21.04.2018 12:00:00 14,0 4,8 - - 22 12 - - WSW 1019,0 50 0,0
21.04.2018 11:00:00 11,9 3,8 - - 15 8 - - SSW 1019,8 45 0,0
21.04.2018 10:00:00 11,5 5,3 8,0 6,5 4 2 - - SW 1020,3 40 0,0
21.04.2018 09:00:00 7,6 4,5 - - 5 3 - - WSW 1021,0 40 0,0
21.04.2018 08:00:00 3,7 3,3 - - 5 3 - - WSW 1021,9 45 0,0
21.04.2018 07:00:00 0,7 0,7 - - 8 4 - - W 1022,3 30 0,0
21.04.2018 06:00:00 -2,2 -2,2 - - 4 2 - - WSW 1022,7 30 0,0
21.04.2018 05:00:00 -1,6 -1,6 - - 2 1 - - ESE 1022,5 19 0,0
21.04.2018 04:00:00 -0,2 -0,2 - - 2 1 - - ENE 1022,6 35 0,0
21.04.2018 03:00:00 0,7 0,7 - - 5 3 - - NNW 1022,7 50 0,0
21.04.2018 02:00:00 2,1 1,3 - - 8 4 - - WNW 1022,7 40 0,0
21.04.2018 01:00:00 3,5 2,4 - - 5 3 - - WSW 1023,0 50 0,0
21.04.2018 00:00:00 5,9 4,1 - - 16 9 - - W 1022,7 50 0,0
20.04.2018 23:00:00 5,4 3,4 - - 9 5 - - WSW 1022,4 50 0,0
20.04.2018 22:00:00 7,6 4,4 - - 5 3 - - NW 1022,4 50 0,0
20.04.2018 21:00:00 8,8 4,5 - - 15 8 - - W 1022,0 50 0,0
20.04.2018 20:00:00 10,6 5,3 - - 21 11 - - W 1021,2 50 0,0
20.04.2018 19:00:00 11,5 5,9 - - 26 14 - - W 1020,9 30 0,0
20.04.2018 18:00:00 13,4 4,1 - - 24 13 - - W 1020,1 45 0,0
20.04.2018 17:00:00 14,3 3,6 - - 24 13 - - W 1020,0 45 0,0
20.04.2018 16:00:00 15,1 3,3 - - 35 19 52 28 WSW 1019,9 30 0,0
20.04.2018 15:00:00 16,0 5,1 - - 28 15 46 25 WSW 1019,8 45 0,0
20.04.2018 14:00:00 16,2 4,6 - - 31 17 46 25 W 1019,6 40 0,0
20.04.2018 13:00:00 15,0 4,1 - - 26 14 - - W 1019,6 45 0,0
20.04.2018 12:00:00 16,7 5,0 - - 22 12 - - W 1019,6 35 0,0
20.04.2018 11:00:00 14,9 4,3 - - 21 11 - - W 1019,9 35 0,0
20.04.2018 10:00:00 14,3 7,4 8,0 6,2 16 9 - - W 1019,8 30 0,0
20.04.2018 09:00:00 12,3 8,6 - - 9 5 - - W 1020,0 50 0,0
20.04.2018 08:00:00 7,5 7,4 - - 8 4 - - W 1020,8 45 0,0
20.04.2018 07:00:00 5,2 5,2 - - 8 4 - - W 1021,0 35 0,0
20.04.2018 06:00:00 4,5 4,2 - - 8 4 - - WNW 1021,2 35 0,0
20.04.2018 05:00:00 6,0 5,7 - - 9 5 - - NW 1021,2 50 0,0
20.04.2018 04:00:00 5,7 5,7 - - 8 4 - - W 1021,6 40 0,0
20.04.2018 03:00:00 5,7 5,7 - - 8 4 - - W 1021,8 45 0,0
20.04.2018 02:00:00 3,9 3,8 - - 4 2 - - WNW 1022,4 30 0,0
20.04.2018 01:00:00 5,2 5,2 - - 5 3 - - WNW 1022,7 35 0,0
20.04.2018 00:00:00 5,6 4,8 - - 4 2 - - W 1022,8 50 0,0
19.04.2018 23:00:00 7,2 5,8 - - 2 1 - - E 1022,8 50 0,0
19.04.2018 22:00:00 9,2 6,1 - - 2 1 - - NNE 1022,5 45 0,0
19.04.2018 21:00:00 12,9 7,8 - - 15 8 - - SSW 1021,9 45 0,0
19.04.2018 20:00:00 14,9 7,5 - - 16 9 - - SW 1021,3 50 0,0
19.04.2018 19:00:00 16,3 7,6 - - 13 7 - - SW 1021,2 50 0,0
19.04.2018 18:00:00 17,2 8,4 - - 16 9 - - W 1021,0 40 0,0
19.04.2018 17:00:00 18,1 8,7 - - 21 11 - - WSW 1020,5 40 0,0
19.04.2018 16:00:00 18,1 9,2 - - 29 16 - - WSW 1020,6 23 0,0
19.04.2018 15:00:00 18,3 11,1 - - 21 11 46 25 WSW 1020,7 27 0,0
19.04.2018 14:00:00 17,3 10,5 - - 22 12 - - WSW 1020,4 45 0,0
19.04.2018 13:00:00 18,4 10,9 - - 18 10 - - SW 1019,8 45 0,0
19.04.2018 12:00:00 17,7 10,8 - - 22 12 - - SW 1019,8 50 0,0
19.04.2018 11:00:00 17,3 10,1 - - 16 9 - - SW 1019,5 40 0,0
19.04.2018 10:00:00 16,5 10,5 7,7 6,0 24 13 - - WSW 1019,3 30 0,0
19.04.2018 09:00:00 15,7 9,6 - - 24 13 - - WSW 1019,1 35 0,0
19.04.2018 08:00:00 14,0 10,7 - - 5 3 - - E 1019,0 30 0,0
19.04.2018 07:00:00 10,5 9,9 - - 4 2 - - SSE 1018,8 30 -
19.04.2018 06:00:00 9,6 7,9 - - 5 3 - - ESE 1018,7 26 -
19.04.2018 05:00:00 15,1 9,3 - - 16 9 - - W 1018,2 45 -
19.04.2018 04:00:00 14,6 10,0 - - 18 10 - - W 1018,5 35 -
19.04.2018 03:00:00 14,3 9,6 - - 9 5 - - WSW 1018,7 35 -
19.04.2018 02:00:00 15,6 10,5 - - 8 4 - - SSW 1018,5 40 0,0
19.04.2018 01:00:00 14,7 10,8 - - 4 2 - - NNW 1018,6 30 0,0
19.04.2018 00:00:00 14,6 10,7 - - 16 9 - - SE 1019,2 40 0,0
18.04.2018 23:00:00 12,8 10,1 - - 5 3 - - E 1019,8 35 0,0
18.04.2018 22:00:00 11,8 9,7 - - 15 8 - - E 1020,6 30 0,0
18.04.2018 21:00:00 13,3 9,8 - - 9 5 - - SE 1020,4 45 0,0
18.04.2018 20:00:00 13,9 9,8 - - 8 4 - - S 1020,7 40 0,0
18.04.2018 19:00:00 14,7 10,1 - - 11 6 - - S 1020,3 45 0,0
18.04.2018 18:00:00 15,5 10,2 - - 13 7 - - SW 1020,6 50 0,0
18.04.2018 17:00:00 15,0 9,9 - - 13 7 - - SSW 1020,8 50 0,0
18.04.2018 16:00:00 16,5 9,8 - - 22 12 - - SW 1020,5 30 0,0
18.04.2018 15:00:00 16,2 10,2 - - 13 7 - - SW 1020,3 45 0,0
18.04.2018 14:00:00 13,9 10,3 - - 13 7 - - S 1020,5 45 0,0
18.04.2018 13:00:00 13,9 10,1 - - 15 8 - - S 1020,4 45 0,0
18.04.2018 12:00:00 13,8 10,0 - - 15 8 - - SSE 1019,9 50 0,0
18.04.2018 11:00:00 13,9 9,3 - - 9 5 - - SW 1019,5 30 0,0
18.04.2018 10:00:00 14,0 9,0 7,5 5,7 18 10 - - SSW 1018,8 30 0,0
18.04.2018 09:00:00 11,8 7,6 - - 15 8 - - SSW 1018,4 18 0,0
18.04.2018 08:00:00 11,3 7,3 - - 11 6 - - S 1018,1 17 0,0
18.04.2018 07:00:00 8,8 6,8 - - 4 2 - - E 1017,7 16 0,0
18.04.2018 06:00:00 8,3 6,6 - - 9 5 - - ESE 1016,8 16 0,0
18.04.2018 05:00:00 9,9 6,8 - - 11 6 - - SW 1016,2 17 0,0
18.04.2018 04:00:00 9,7 6,9 - - 4 2 - - WNW 1015,8 16 0,0
18.04.2018 03:00:00 10,7 7,5 - - 5 3 - - E 1015,5 15 0,0
18.04.2018 02:00:00 11,1 7,5 - - 8 4 - - SSW 1014,8 16 0,0
18.04.2018 01:00:00 11,1 7,8 - - 16 9 - - WSW 1014,1 16 0,0
18.04.2018 00:00:00 11,8 7,9 - - 15 8 - - SW 1013,2 15 0,0
17.04.2018 23:00:00 11,2 7,8 - - 8 4 - - ESE 1012,4 21 0,0
17.04.2018 22:00:00 11,6 7,9 - - 5 3 - - ESE 1011,3 23 0,0
17.04.2018 21:00:00 12,5 7,8 - - 11 6 - - SSW 1010,3 19 0,0
17.04.2018 20:00:00 13,0 7,6 - - 11 6 - - SW 1009,0 19 0,0
17.04.2018 19:00:00 13,7 7,8 - - 11 6 - - SW 1007,7 19 0,0
17.04.2018 18:00:00 14,1 8,1 - - 13 7 - - S 1006,6 30 0,0
17.04.2018 17:00:00 14,2 8,4 - - 18 10 48 26 SSW 1005,5 23 0,0
17.04.2018 16:00:00 14,2 8,8 - - 22 12 52 28 SSW 1005,0 40 0,0
17.04.2018 15:00:00 13,4 8,5 - - 22 12 48 26 SSW 1005,2 30 0,0
17.04.2018 14:00:00 14,0 7,9 - - 22 12 59 32 SSW 1004,8 30 0,0
17.04.2018 13:00:00 13,5 7,8 - - 13 7 - - SSW 1004,6 40 0,0
17.04.2018 12:00:00 13,1 8,6 - - 15 8 - - SSW 1004,3 40 0,0
17.04.2018 11:00:00 11,2 8,8 - - 8 4 - - SSE 1004,4 16 0,2
17.04.2018 10:00:00 10,0 7,9 6,9 5,4 18 10 - - SSE 1004,3 16 0,0
17.04.2018 09:00:00 8,0 6,9 - - 9 5 - - ENE 1004,0 13 0,0
17.04.2018 08:00:00 7,6 6,5 - - 18 10 - - ESE 1003,8 17 0,2
17.04.2018 07:00:00 7,2 6,5 - - 11 6 - - E 1004,3 19 0,8
17.04.2018 06:00:00 7,2 6,5 - - 18 10 - - E 1004,4 12 0,4
17.04.2018 05:00:00 7,5 6,2 - - 22 12 - - E 1004,9 13 0,0
17.04.2018 04:00:00 8,3 5,4 - - 24 13 - - SE 1005,7 23 0,0
17.04.2018 03:00:00 8,2 5,4 - - 22 12 - - SE 1006,4 29 0,0
17.04.2018 02:00:00 8,7 4,8 - - 11 6 - - SE 1006,6 45 0,0
17.04.2018 01:00:00 8,7 4,4 - - 5 3 - - SE 1007,1 35 0,0
17.04.2018 00:00:00 9,6 4,0 - - 22 12 48 26 SSW 1007,1 30 0,0
16.04.2018 23:00:00 10,1 4,0 - - 18 10 46 25 SSE 1007,1 45 0,0
16.04.2018 22:00:00 10,0 4,0 - - 15 8 - - S 1007,1 35 0,0
16.04.2018 21:00:00 10,1 4,2 - - 18 10 - - S 1007,3 35 0,0
16.04.2018 20:00:00 10,3 4,0 - - 9 5 - - S 1007,0 35 0,0
16.04.2018 19:00:00 11,1 4,4 - - 16 9 - - SSW 1006,4 30 0,0
16.04.2018 18:00:00 11,9 4,9 - - 16 9 - - SW 1006,4 45 0,0
16.04.2018 17:00:00 13,5 6,2 - - 18 10 - - SW 1005,8 40 0,0
16.04.2018 16:00:00 13,7 6,5 - - 16 9 - - SW 1005,6 40 0,0
16.04.2018 15:00:00 13,2 6,9 - - 26 14 - - WSW 1005,5 50 0,0

tt = temperature
td = dewpoint
tt -20cm = temperature -20cm
tt -100cm = temperature -100cm
ff = wind speed
fx = gusts
dd = wind direction
ppp = reduced air pressure
vv = visibility
rr = precipitation

Next stations